weather.gov     
National Weather Service

Regional Weather Roundup
NWS Homepage
This page is being discontinued on March 12, 2014.
The same data is available at this site. Please update your bookmarks.
Thank you, and we apologize for the inconvenience.
Please send an email to SR-SRH.Webmaster@noaa.gov with any concerns.


Current Version
Previous Version:    01  02  03  04  05  06  07  08  09  10  11  12  13  14  15  16  17  18  19  20  21  22  23  24  25  26  27  
[Printable]
734
ASUS42 KTBW 201810
RWRFL
FLORIDA REGIONAL WEATHER ROUNDUP
NATIONAL WEATHER SERVICE TAMPA BAY RUSKIN FL
200 PM EDT MON OCT 20 2014

NOTE: "FAIR" INDICATES FEW OR NO CLOUDS BELOW 12,000 FEET WITH NO
SIGNIFICANT WEATHER AND/OR OBSTRUCTIONS TO VISIBILITY.


FLZ001>010-012>015-112-114-115-201900-
PANHANDLE FLORIDA

CITY           SKY/WX    TMP DP  RH WIND       PRES   REMARKS
PENSACOLA      SUNNY     76  58  53 CALM      30.03F
PENSACOLA NAS  PTSUNNY   75  59  57 SE6       30.02F
MILTON NAS     MOSUNNY   76  53  44 VRB3      30.04F
CRESTVIEW      SUNNY     78  56  46 CALM      30.04F
DUKE FIELD     MOSUNNY   77  56  48 S3        30.03F
VALPARAISO     PTSUNNY   76  61  58 S8        30.02F
MARY ESTHER    MOSUNNY   77  58  52 S8        30.02F
PANAMA CITY    FAIR      80  61  52 S6        30.01F
TYNDALL AFB    SUNNY     79  67  66 S5        30.02F
APALACHICOLA   SUNNY     82  69  64 SE9       30.00F

STATION/POSITION SKY/WX   TEMP    WIND        PRES    WAVE   SWELL
                          AIR SEA DIR/SP/G            HT/PER HT/PER
                          (F)     (DEG/KT/KT) (MB)    (FT/S) (FT/S)
30.1N   87.6W              73 79   40/  8/ 10 1016.6F   1/ 3
29.2N   88.2W              76 80  110/  4/  8 1017.0F   1/ 5   2/ 5
28.8N   86.0W              78 81  130/  4/  6 1016.0F   1/ 4
PANAMA CITY BEAC           74 78  210/  3/  5 1016.6F
CAPE SAN BLAS    NOT AVBL
TOWER C                    76     120/ 10/ 11 1015.7F
28.5N   84.5W              80 82  150/  8/ 10 1015.6F   2/ 5   2/ 5

$$
FLZ011-016>038-118-127-128-134-139-239-201900-
NORTH FLORIDA

CITY           SKY/WX    TMP DP  RH WIND       PRES   REMARKS
MARIANNA       PTSUNNY   77  63  61 SW6       30.01F
TALLAHASSEE    PTSUNNY   81  61  50 VRB5      30.01F
PERRY          MOSUNNY   81  63  54 S7        30.01F
CROSS CITY       N/A     85  61  44 VRB6      29.99F
LAKE CITY      FAIR      81  63  54 S3        30.01F
GAINESVILLE    MOSUNNY   81  63  54 SE9       30.00F
MAYPORT NAS    PTSUNNY   80  64  58 SE12      30.02F
JACKSONVILLE   PTSUNNY   79  64  60 SE8       30.01F
JAX NAS        PTSUNNY   82  62  50 E8        30.02F
JAX CRAIG      PTSUNNY   79  63  57 SE8       30.02F
JAX CECIL      MOSUNNY   81  64  57 E6        30.02F
FERNANDINA BEA FAIR      82  64  54 SE9       30.02F
ST AUGUSTINE   MOSUNNY   80  66  62 SE13      30.02F

STATION/POSITION SKY/WX   TEMP    WIND        PRES    WAVE   SWELL
                          AIR SEA DIR/SP/G            HT/PER HT/PER
                          (F)     (DEG/KT/KT) (MB)    (FT/S) (FT/S)
SHELL POINT                73     130/  7/  9   N/A
KEATON BEACH               74     210/  5/  6 1016.2F
CEDAR KEY                  76     170/  4/  4 1016.2F
FERNANDINA                 77 74  110/  6/ 10 1016.3F
30.7N   81.3W                 78                N/A     2/11   2/11
MAYPORT                    78 77  120/  6/ 12   N/A
31.4N   80.9W              76 76  120/  6/  8 1017.3F   2/10   2/10
ST AUGUSTINE               77     120/ 11/ 12 1017.0F

$$
FLZ040-043>046-052-053-057-058-063-144-201900-
INTERIOR CENTRAL FLORIDA

CITY           SKY/WX    TMP DP  RH WIND       PRES   REMARKS
THE VILLAGES     N/A     82  61  47 E10G23    29.90F
LEESBURG       SUNNY     83  59  44 VRB5      30.00F
SANFORD        MOSUNNY   83  65  54 VRB6      30.00F
ORLANDO EXEC   MOSUNNY   83  63  50 S3        30.00F
ORLANDO INTL   MOSUNNY   84  61  45 CALM      30.00F
KISSIMMEE      MOSUNNY   82  54  36 S6        30.01F
WINTER HAVEN   MOSUNNY   82  61  48 SW5       30.01F
LAKELAND       MOSUNNY   82  63  51 CALM      30.00F
OKEECHOBEE     MOSUNNY   82  68  61 MISG      29.99F

$$
FLZ041-047-054-059-064-141-147-201900-
EAST CENTRAL FLORIDA

CITY           SKY/WX    TMP DP  RH WIND       PRES   REMARKS
ORMOND BEACH   MOSUNNY   81  64  57 E8        30.02F
DAYTONA BEACH  MOSUNNY   80  66  62 E8        30.01F
DELAND         PTCLDY    81  66  61 E10       30.01F
NEW SMYRNA BEA MOSUNNY   81  68  65 E12       30.02F
JFK SPACE CTR  PTSUNNY   82  70  65 E6        30.00F
TITUSVILLE     MOSUNNY   82  70  65 E7        30.01F
CAPE CANAVERAL MOSUNNY   83  67  58 SE6       29.99F
PATRICK AFB    SUNNY     82  68  63 VRB6      29.99F
MELBOURNE      SUNNY     84  64  50 E9        29.99F
VERO BEACH     MOSUNNY   82  65  56 E9        29.99F
FT PIERCE      MOSUNNY   83  65  54 E9        29.99F
STUART         MOSUNNY   82  63  51 NE10      30.00F

STATION/POSITION SKY/WX   TEMP    WIND        PRES    WAVE   SWELL
                          AIR SEA DIR/SP/G            HT/PER HT/PER
                          (F)     (DEG/KT/KT) (MB)    (FT/S) (FT/S)
28.5N   80.2W              79 84   90/  4/  6 1016.7F
28.9N   78.5W              78 80   90/ 14/ 16 1016.3F   4/ 4   2/ 7
TRIDENT PIER               83 80  110/  4/  7 1015.5F
28.4N   80.5W                 81                N/A     2/ 8
27.6N   80.2W                 82                N/A     3/ 7   2/11

$$
FLZ050-056-061-142-242-148-248-149-249-151-251-155-255-
160-260-201900-
WEST CENTRAL FLORIDA

CITY           SKY/WX    TMP DP  RH WIND       PRES   REMARKS
CRYSTAL RIVER  FAIR      84  57  39 E5        29.99F
INVERNESS      FAIR      82  59  44 CALM      30.00F
BROOKSVILLE    SUNNY     83  62  49 CALM      30.00F
ZEPHYRHILLS    FAIR      82  55  39 CALM      30.01F
CLEARWATER     SUNNY     83  63  50 NE7       29.98F
TAMPA INTL     MOSUNNY   83  60  45 S8        29.99F
TAMPA EXEC     MOSUNNY   86  61  42 NE5       29.99F
PLANT CITY     MOSUNNY   84  59  42 CALM      30.02F
MACDILL AFB    SUNNY     87  65  47 S3        29.99F
ST PETERSBURG  SUNNY     83  63  50 E5        29.97F
SARASOTA       SUNNY     84  62  47 E7        29.96F
VENICE           N/A     84  63  48 MISG      29.99F

STATION/POSITION SKY/WX   TEMP    WIND        PRES    WAVE   SWELL
                          AIR SEA DIR/SP/G            HT/PER HT/PER
                          (F)     (DEG/KT/KT) (MB)    (FT/S) (FT/S)
CEDAR KEY                  76     170/  4/  4 1016.2F
28.5N   84.5W              80 82  150/  8/ 10 1015.6F   2/ 5   2/ 5
27.3N   84.3W                 81                N/A     3/ 5
CLEARWATER BEACH NOT AVBL
MIDDLE TAMPA BAY           79      30/  6/  7 1015.7F
VENICE                     81 80  160/  5/  5 1014.5F

$$
FLZ066-069-070-075>078-162-262-165-265-201900-
SOUTHWEST FLORIDA AND KEYS

CITY           SKY/WX    TMP DP  RH WIND       PRES   REMARKS
PUNTA GORDA    MOSUNNY   87  64  46 E7        29.99F
FT MYERS       SUNNY     86  63  45 S6        29.96F
SOUTHWEST INTL MOSUNNY   85  64  49 VRB5      29.96F
NAPLES         MOSUNNY   87  67  51 S6        29.95F
MARATHON       LGT RAIN  79  78  97 E7        29.95F
KEY WEST NAS   MOSUNNY   86  73  65 S10       29.94F
KEY WEST INTL  MOSUNNY   85  74  69 S10       29.95F

STATION/POSITION SKY/WX   TEMP    WIND        PRES    WAVE   SWELL
                          AIR SEA DIR/SP/G            HT/PER HT/PER
                          (F)     (DEG/KT/KT) (MB)    (FT/S) (FT/S)
VENICE                     81 80  160/  5/  5 1014.5F
NAPLES                     83 84  250/  5/  6 1015.0F
26.0N   85.6W              81 83  110/  8/ 10 1015.8F   3/ 6   2/ 6
DRY TORTUGAS               82     170/  9/ 10 1014.7F
NW FL BAY                  79      90/ 13/ 15 1015.9F
SAND KEY                   81     160/ 10/ 12 1014.3F
SOMBRERO KEY               80     110/ 17/ 18 1014.7F
LONG KEY                   78 82  160/ 15/ 17 1014.9F
MOLASSES REEF              81 84  120/ 13/ 14 1014.7F

$$
FLZ067-068-071>074-168-172>174-201900-
SOUTHEAST FLORIDA

CITY           SKY/WX    TMP DP  RH WIND       PRES   REMARKS
W PALM BEACH   MOSUNNY   83  63  50 SE8       29.97F
FT LAUDER-EXEC MOSUNNY   85  65  51 E10       29.97F
FT LAUDERDALE  PTSUNNY   85  68  56 E14       29.97F
POMPANO BEACH  MOSUNNY   86  66  51 E12       29.98F
PEMBROKE PINES PTSUNNY   84  66  54 SE12G17   29.98F
OPA LOCKA      PTSUNNY   83  68  60 SE14      29.98F
MIAMI          PTSUNNY   82  67  60 SE10      29.98F
WEST KENDALL   CLOUDY    85  68  56 E12       29.97F
HOMESTEAD      MOSUNNY   83  69  61 E13       29.97F

STATION/POSITION SKY/WX   TEMP    WIND        PRES    WAVE   SWELL
                          AIR SEA DIR/SP/G            HT/PER HT/PER
                          (F)     (DEG/KT/KT) (MB)    (FT/S) (FT/S)
PORT EVERGLADES            83      90/  6/  8 1014.9
VIRGINIA KEY               81 81  100/  9/ 12 1015.5F
LAKE WORTH                 81 83  130/  5/  7 1015.1F
FOWEY ROCKS                81 83  100/ 12/ 14 1015.2F
SETTLEMENT POINT           80      70/  9/ 10 1016.0F

$$





U.S. Dept. of Commerce
NOAA National Weather Service
1325 East West Highway
Silver Spring, MD 20910
E-mail: w-nws.webmaster@noaa.gov
Page last modified: May 16, 2007
NATIONAL WEATHER SERVICE: for Safety, for Work, for Fun - FOR LIFE